Weather History for Chadron, NE

Change the Weather History Date:

Friday, March 22, 2013

  Actual Average Record
Temperature  
Mean Temperature 31 °F 38 °F  
Max Temperature 44 °F 53 °F 79 °F (2009)
Min Temperature 18 °F 23 °F -1 °F (2002)
Degree Days  
Heating Degree Days 34 27  
Month to date heating degree days 601 671  
Since 1 July heating degree days 5497 5923  
Cooling Degree Days 0 0  
Month to date cooling degree days 0 0  
Year to date cooling degree days 0 0  
Moisture  
Dew Point 26 °F    
Average Humidity 73    
Maximum Humidity 96    
Minimum Humidity 50    
Precipitation  
Precipitation 0.01 in 0.05 in 0.53 in (1957)
Month to date precipitation 0.18 0.84  
Year to date precipitation 1.03 1.81  
Sea Level Pressure  
Sea Level Pressure 29.92 in    
Wind  
Wind Speed 10 mph (NNW)    
Max Wind Speed 30 mph    
Max Gust Speed 36 mph    
Visibility 5 miles    
Events Fog , Snow    
T = Trace of Precipitation, MM = Missing Value Source: NWS Daily Summary

Daily Weather History Graph

Daily Weather History Graph

Search for Another Location

Airport:

Trip Planner

Search our weather history database for the weather conditions in past years. The results will help you decide how hot, cold, wet, or windy it might be!

Date:

Astronomy

Mar. 22, 2013 Rise Set
Actual Time 6:51 AM MDT 7:07 PM MDT
Civil Twilight 6:23 AM MDT 7:35 PM MDT
Nautical Twilight 5:50 AM MDT 8:08 PM MDT
Astronomical Twilight 5:16 AM MDT 8:43 PM MDT
Moon 2:31 PM MDT (3/22) 3:59 AM MDT (3/22)
Length of Visible Light 13h 12m
Length of Day
12h 15m
Waxing Gibbous, 78% of the Moon is Illuminated
Mar 22
Waxing Gibbous
Mar 27
Full
Apr 2
Last Quarter
Apr 10
New
Apr 18
First Quarter

Hourly Weather History & Observations

Time (MDT) Temp. Windchill Dew Point Humidity Pressure Visibility Wind Dir Wind Speed Gust Speed Precip Events Conditions
12:04 AM 28.4 °F 18.5 °F 26.6 °F 93% 29.83 in 2.0 mi NNW 11.5 mph - 0.00 in Snow Light Snow
12:08 AM 28.4 °F 19.7 °F 26.6 °F 93% 29.83 in 1.8 mi NNW 9.2 mph - 0.00 in Snow Light Snow
12:24 AM 28.4 °F 20.4 °F 26.6 °F 93% 29.84 in 3.0 mi NNW 8.1 mph - 0.00 in   Overcast
12:53 AM 28.0 °F 20.0 °F 25.0 °F 88% 29.91 in 5.0 mi NNW 8.1 mph - 0.00 in   Overcast
1:11 AM 26.6 °F 19.1 °F 24.8 °F 93% 29.84 in 5.0 mi NNW 6.9 mph - N/A   Mostly Cloudy
1:21 AM 26.6 °F 21.2 °F 24.8 °F 93% 29.84 in 5.0 mi NNW 4.6 mph - N/A   Scattered Clouds
1:35 AM 26.6 °F 22.6 °F 23.0 °F 86% 29.84 in 5.0 mi North 3.5 mph - N/A   Mostly Cloudy
1:42 AM 24.8 °F - 23.0 °F 93% 29.84 in 5.0 mi Calm Calm - N/A   Partly Cloudy
1:53 AM 25.0 °F - 23.0 °F 92% 29.94 in 5.0 mi Calm Calm - N/A   Mostly Cloudy
2:28 AM 26.6 °F - 24.8 °F 93% 29.85 in 5.0 mi Calm Calm - N/A   Overcast
2:53 AM 23.0 °F 18.4 °F 21.0 °F 92% 29.95 in 4.0 mi WSW 3.5 mph - N/A   Mostly Cloudy
3:17 AM 21.2 °F 14.9 °F 19.4 °F 93% 29.86 in 4.0 mi SSW 4.6 mph - N/A   Scattered Clouds
3:53 AM 19.9 °F 13.4 °F 18.0 °F 92% 29.96 in 6.0 mi SW 4.6 mph - N/A   Clear
4:53 AM 21.9 °F 10.4 °F 19.0 °F 89% 29.94 in 10.0 mi SSW 11.5 mph - N/A   Clear
5:53 AM 19.9 °F 10.1 °F 17.1 °F 89% 29.96 in 10.0 mi SSW 8.1 mph - N/A   Clear
6:53 AM 21.9 °F - 19.0 °F 89% 29.95 in 10.0 mi Calm Calm - N/A   Clear
7:53 AM 21.9 °F - 19.0 °F 89% 29.94 in 8.0 mi Calm Calm - N/A   Clear
8:53 AM 27.0 °F 21.6 °F 24.1 °F 89% 29.94 in 9.0 mi SSW 4.6 mph - N/A   Clear
9:53 AM 30.9 °F 26.2 °F 28.0 °F 89% 29.94 in 8.0 mi SSW 4.6 mph - N/A   Clear
10:53 AM 35.1 °F 28.6 °F 30.9 °F 85% 29.93 in 8.0 mi South 8.1 mph - N/A   Mostly Cloudy
11:01 AM 35.6 °F 31.7 °F 30.2 °F 81% 29.83 in 8.0 mi SSE 4.6 mph - N/A   Mostly Cloudy
11:18 AM 37.4 °F - 30.2 °F 75% 29.82 in 10.0 mi Calm Calm - N/A   Mostly Cloudy
11:53 AM 42.1 °F 36.6 °F 30.9 °F 65% 29.90 in 10.0 mi WNW 9.2 mph - N/A   Scattered Clouds
12:53 PM 42.1 °F - 28.0 °F 58% 29.89 in 10.0 mi Calm Calm - N/A   Mostly Cloudy
1:53 PM 36.0 °F 27.5 °F 30.9 °F 82% 29.90 in 1.2 mi West 12.7 mph - 0.00 in Snow Light Snow
1:56 PM 35.6 °F 27.5 °F 30.2 °F 81% 29.79 in 0.5 mi WNW 11.5 mph - 0.00 in Fog , Snow Snow
2:03 PM 37.4 °F 30.8 °F 30.2 °F 75% 29.79 in 0.5 mi NW 9.2 mph - 0.01 in Snow Snow
2:08 PM 37.4 °F 32.1 °F 32.0 °F 81% 29.78 in 2.5 mi North 6.9 mph - 0.01 in Snow Light Snow
2:15 PM 39.2 °F 34.2 °F 33.8 °F 81% 29.79 in 6.0 mi NNW 6.9 mph - 0.01 in   Unknown
2:53 PM 39.9 °F 35.1 °F 32.0 °F 73% 29.88 in 10.0 mi ENE 6.9 mph - 0.01 in   Scattered Clouds
3:53 PM 39.9 °F 35.1 °F 32.0 °F 73% 29.89 in 10.0 mi ENE 6.9 mph - N/A   Overcast
4:53 PM 42.1 °F 40.2 °F 30.0 °F 62% 29.90 in 10.0 mi Variable 3.5 mph - N/A   Partly Cloudy
5:53 PM 39.0 °F 29.0 °F 23.0 °F 53% 29.93 in 10.0 mi WNW 20.7 mph - N/A   Clear
6:53 PM 34.0 °F 22.7 °F 26.1 °F 73% 29.98 in 10.0 mi WNW 19.6 mph 27.6 mph N/A   Clear
7:29 PM 32.0 °F 23.6 °F 28.4 °F 87% 29.89 in 10.0 mi NNE 10.4 mph - N/A   Mostly Cloudy
7:34 PM 32.0 °F 22.5 °F 28.4 °F 87% 29.88 in 10.0 mi NE 12.7 mph - N/A   Mostly Cloudy
7:53 PM 30.9 °F 20.7 °F 28.9 °F 92% 30.02 in 9.0 mi NNE 13.8 mph - N/A   Overcast
8:33 PM 30.2 °F 17.4 °F 26.6 °F 86% 29.93 in 1.8 mi NNE 20.7 mph 31.1 mph 0.00 in Snow Light Snow
8:44 PM 28.4 °F 14.7 °F 26.6 °F 93% 29.94 in 2.0 mi North 21.9 mph 28.8 mph 0.00 in Snow Light Snow
8:47 PM 28.4 °F 14.4 °F 26.6 °F 93% 29.94 in 1.5 mi North 23.0 mph - 0.00 in Snow Light Snow
8:53 PM 28.9 °F 16.1 °F 27.0 °F 92% 30.06 in 0.8 mi North 19.6 mph 27.6 mph 0.00 in Snow Light Snow
9:05 PM 28.4 °F 17.5 °F 26.6 °F 93% 29.94 in 0.2 mi NNE 13.8 mph - 0.00 in Fog , Snow Snow
9:15 PM 28.4 °F 15.8 °F 26.6 °F 93% 29.94 in 0.5 mi North 18.4 mph - 0.00 in Fog , Snow Snow
9:34 PM 28.4 °F 15.4 °F 26.6 °F 93% 29.94 in 0.5 mi North 19.6 mph - 0.00 in Fog , Snow Snow
9:53 PM 28.9 °F 16.9 °F 26.1 °F 89% 30.07 in 0.5 mi North 17.3 mph 23.0 mph 0.00 in Fog , Snow Snow
10:06 PM 28.4 °F 16.2 °F 26.6 °F 93% 29.95 in 0.8 mi NNE 17.3 mph 23.0 mph 0.00 in Snow Light Snow
10:33 PM 28.4 °F 14.7 °F 26.6 °F 93% 29.98 in 0.8 mi North 21.9 mph 28.8 mph 0.00 in Snow Light Snow
10:37 PM 28.4 °F 15.4 °F 26.6 °F 93% 29.98 in 1.0 mi North 19.6 mph - 0.00 in Snow Light Snow
10:44 PM 28.4 °F 15.8 °F 26.6 °F 93% 29.99 in 0.8 mi North 18.4 mph - 0.00 in Snow Light Snow
10:53 PM 27.0 °F 11.9 °F 25.0 °F 92% 30.10 in 0.5 mi NNE 25.3 mph 33.4 mph 0.00 in Fog , Snow Snow
11:22 PM 26.6 °F 12.7 °F 24.8 °F 93% 29.99 in 0.5 mi North 20.7 mph - 0.00 in Fog Light Freezing Fog
11:29 PM 26.6 °F 11.4 °F 24.8 °F 93% 29.99 in 0.2 mi NNE 25.3 mph 33.4 mph 0.00 in Fog Light Freezing Fog
11:53 PM 25.0 °F 10.9 °F 23.0 °F 92% 30.09 in 0.2 mi NNE 19.6 mph - 0.00 in Fog Light Freezing Fog